Location: Unspecified
(54.1780°N, 0.0000°E)
Time: 01:16:07
(UTC+00:00)

S-56A Canister/Altair - All Passes

Search period start: 16 June 2019 00:00
Search period end: 26 June 2019 00:00
Orbit: 633 x 2499 km, 38.9° (Epoch: 14 June)

Date Brightness Start Highest point End Pass type
(mag) Time Alt. Az. Time Alt. Az. Time Alt. Az.
16 Jun - 18:59:00 10° SSW 19:01:50 14° S 19:04:23 10° SE daylight
16 Jun - 21:02:40 10° SSW 21:04:16 11° SSW 21:05:47 10° S daylight
17 Jun - 18:26:08 10° SSW 18:29:22 15° S 18:32:10 10° SE daylight
17 Jun - 20:29:36 10° SW 20:31:50 13° SSW 20:33:54 10° SSE daylight
18 Jun - 17:53:13 10° SSW 17:56:51 15° S 17:59:57 10° SE daylight
18 Jun - 19:56:34 10° SW 19:59:24 14° SSW 20:01:55 10° SSE daylight
19 Jun - 17:20:15 10° SSW 17:24:19 16° S 17:27:43 10° SE daylight
19 Jun - 19:23:31 10° SW 19:26:56 16° S 19:29:55 10° SSE daylight
20 Jun - 16:47:14 10° SSW 16:51:45 16° S 16:55:28 10° SE daylight
20 Jun - 18:50:26 10° SW 18:54:28 17° S 18:57:51 10° SSE daylight
21 Jun - 16:14:12 10° SSW 16:19:09 17° SSE 16:23:10 10° SE daylight
21 Jun - 18:17:19 10° SW 18:21:58 19° S 18:25:46 10° SE daylight
21 Jun - 20:23:09 10° SW 20:24:16 11° SSW 20:25:20 10° SSW daylight
22 Jun - 15:41:09 10° SSW 15:46:30 17° SSE 15:50:50 10° SE daylight
22 Jun - 17:44:08 10° SW 17:49:27 21° S 17:53:38 10° SE daylight
22 Jun - 19:49:19 10° SW 19:51:50 13° SSW 19:54:07 10° S daylight
23 Jun - 15:08:05 10° SSW 15:13:49 17° SSE 15:18:28 10° ESE daylight
23 Jun - 17:10:54 10° SW 17:16:53 22° S 17:21:28 10° SE daylight
23 Jun - 19:15:52 10° SW 19:19:23 15° SSW 19:22:25 10° SSE daylight
24 Jun - 14:35:02 10° SSW 14:41:06 17° SSE 14:46:01 10° ESE daylight
24 Jun - 16:37:40 10° SW 16:44:16 23° S 16:49:17 10° SE daylight
24 Jun - 18:42:28 10° WSW 18:46:55 18° SSW 18:50:35 10° SSE daylight
25 Jun - 14:02:00 10° SSW 14:08:20 17° SSE 14:13:30 10° ESE daylight
25 Jun - 16:04:21 10° SW 16:11:37 25° S 16:17:03 10° SE daylight
25 Jun - 18:09:06 10° WSW 18:14:26 20° SSW 18:18:37 10° SSE daylight
